GEFSCGP_500_meanwind_012.txt.gz
Wind_Speed
25 24 23 21 21 23 23 24 22 17 17 23 30 31 31 31 35 37 42 42 43 38 39 40 41 41 40 40 41 42 42 42 41 42 42 42 42 43 44 44 43 43 41 39
27 25 24 27 30 29 29 30 28 23 20 28 36 36 33 34 37 42 46 48 46 43 40 41 43 44 44 43 43 44 44 44 44 45 45 45 45 45 45 45 46 46 44 41
29 26 31 33 32 30 28 27 28 28 24 26 37 41 37 37 41 48 49 49 47 45 43 44 44 45 46 46 46 46 46 46 46 46 46 45 45 45 46 47 48 48 46 43
30 31 35 34 31 29 26 23 26 30 31 30 30 33 33 33 37 44 46 46 46 46 46 45 44 46 47 48 48 48 48 47 46 45 45 45 46 47 48 49 50 49 48 46
22 28 32 32 29 30 30 32 34 35 36 38 36 35 33 27 32 40 41 42 43 44 45 44 43 44 46 47 48 47 47 46 46 46 46 47 48 49 50 51 51 51 50 49
12 16 19 22 27 33 35 36 37 38 38 41 38 37 38 31 34 42 44 44 41 39 40 42 42 42 43 45 45 45 45 45 46 46 47 48 50 51 52 52 52 51 51 49
7 8 10 12 16 22 27 31 35 37 38 40 34 34 36 38 43 48 49 47 42 35 35 36 39 41 42 43 44 45 45 46 47 48 49 50 52 53 53 53 52 51 49 48
8 9 11 12 15 17 20 24 28 33 33 33 32 36 40 42 46 50 52 53 54 52 47 44 43 43 44 44 46 47 48 49 50 51 52 52 53 54 54 53 51 49 48 47
14 15 17 18 21 23 24 26 29 34 36 37 36 37 42 42 45 49 53 55 54 54 52 52 51 50 49 49 49 50 52 53 53 54 54 54 53 53 51 50 48 48 47 45
19 20 19 23 25 25 27 29 31 36 39 40 39 35 39 44 45 46 46 52 54 53 53 52 52 52 51 50 50 51 52 53 52 52 50 49 48 46 45 44 44 44 42 40
15 14 13 18 23 25 28 30 32 36 38 39 39 35 37 41 43 44 42 40 44 46 45 44 44 44 44 44 44 45 46 45 45 44 43 42 41 39 38 38 38 37 36 34
11 12 13 15 19 24 27 30 34 39 40 41 41 40 40 41 44 47 48 44 40 39 40 39 37 37 38 39 40 40 40 40 39 39 39 38 36 34 34 34 33 32 30 28
13 14 15 15 19 25 29 33 37 42 46 46 46 43 38 37 40 46 49 48 45 41 39 39 37 37 37 38 39 38 37 36 36 35 35 36 35 34 32 32 32 31 29 27
15 16 18 19 21 25 30 34 38 41 45 47 47 45 41 39 36 37 37 37 36 35 36 37 36 36 37 37 36 35 34 34 34 34 34 35 35 35 34 34 33 33 33 32
16 17 20 22 24 27 29 30 30 33 37 41 40 39 36 36 34 33 32 32 33 33 33 34 35 35 35 35 35 34 32 32 32 33 33 33 34 35 36 36 36 36 37 37
19 19 21 22 25 28 28 26 28 29 31 33 33 32 30 29 32 33 32 32 32 31 31 31 31 32 34 35 35 33 32 32 32 33 33 33 34 34 35 36 37 37 38 39
20 21 22 23 25 28 25 28 28 27 27 25 25 25 24 26 27 29 29 29 28 27 27 26 27 28 29 31 33 32 31 30 30 30 31 33 34 34 35 35 36 37 38 39
20 20 21 23 26 25 27 28 25 23 22 19 19 19 17 19 20 21 22 21 21 21 21 21 22 23 24 26 28 29 29 30 30 30 31 31 32 33 34 35 36 37 39 40
19 19 21 22 23 24 25 26 21 18 14 14 14 14 14 14 14 15 16 17 17 18 18 18 18 18 20 23 25 27 29 29 28 28 29 29 30 31 32 33 34 35 37 38
21 19 20 20 21 22 24 23 20 16 12 11 11 11 10 10 11 11 13 14 15 14 14 14 15 15 16 18 20 22 24 25 25 25 25 26 27 29 30 32 33 35 36 36
25 22 20 20 20 20 21 21 19 16 13 11 10 9 9 10 10 10 11 11 12 12 12 12 13 14 15 16 17 19 21 22 23 23 23 24 26 28 29 30 31 32 32 31
25 23 21 20 20 20 19 19 18 16 12 10 10 10 10 10 11 11 11 12 12 12 13 13 14 15 16 17 18 20 21 21 22 22 22 24 25 26 26 27 27 25 24 23
27 25 23 21 21 21 19 18 17 15 13 11 10 10 10 10 9 9 10 10 10 10 10 11 12 13 14 15 16 17 19 20 20 20 20 21 21 22 22 22 22 22 22 22
27 28 26 22 21 22 20 18 16 15 13 11 9 9 8 7 7 7 7 6 6 6 6 7 7 8 10 11 12 14 15 16 17 17 18 18 19 19 19 20 20 21 22 23
26 29 29 26 22 22 21 19 18 16 14 11 9 8 6 6 5 5 5 5 5 5 5 5 5 6 6 7 8 10 11 13 14 15 17 18 18 18 19 19 19 19 20 21
22 27 31 29 26 25 22 21 19 18 16 15 13 11 9 8 7 7 7 7 7 6 6 6 6 6 7 7 7 8 9 10 12 14 15 16 17 18 18 19 20 21 22 23

GEFSCGP_500_meanwind_018.txt.gz
Wind_Speed
21 20 20 20 21 22 24 26 27 27 25 27 29 31 27 27 32 36 38 39 39 40 40 39 36 33 35 35 35 36 36 35 35 34 34 34 35 36 37 39 39 39 38 38
24 24 24 25 25 26 26 26 27 25 23 25 26 25 24 25 29 33 37 39 40 41 42 39 37 37 38 37 37 37 39 37 36 37 36 36 37 39 40 41 41 41 41 40
25 26 28 28 28 28 28 28 28 27 25 26 27 26 24 26 31 35 39 42 43 43 44 45 44 43 42 41 39 41 42 40 40 40 39 40 40 41 42 42 42 42 42 41
21 24 27 28 29 29 30 31 32 30 28 29 31 31 30 32 36 40 43 45 46 46 45 44 43 42 42 41 40 40 41 42 41 41 41 42 42 42 42 42 42 41 42 42
17 20 23 24 25 27 30 32 33 33 32 32 34 38 37 38 41 43 46 47 47 46 45 43 40 39 39 38 39 39 40 40 40 41 42 42 42 41 40 39 39 40 41 42
11 13 15 16 18 23 26 28 29 30 32 33 32 39 42 42 44 46 48 49 49 47 46 44 43 41 40 39 38 37 38 38 38 38 39 39 39 38 38 38 39 41 43 44
7 9 10 11 13 16 19 20 22 23 25 27 27 34 39 40 44 47 49 50 50 50 49 49 49 47 46 44 41 38 37 36 37 37 38 38 38 38 39 40 42 44 46 47
7 9 10 12 13 14 16 18 20 22 22 22 23 28 31 35 38 40 44 47 49 50 51 52 52 51 50 48 45 43 41 41 40 41 40 40 40 41 42 44 46 47 49 49
10 10 12 13 15 16 17 18 21 24 26 26 25 25 30 33 36 39 41 44 46 48 49 51 51 51 51 50 48 47 46 44 44 44 44 45 44 45 46 47 48 49 49 48
9 8 8 10 12 13 15 16 19 23 27 29 29 29 31 34 38 41 42 45 47 48 49 51 51 50 48 49 47 48 48 45 43 44 45 45 45 45 46 47 47 46 45 43
7 7 7 10 13 14 15 17 19 23 27 32 37 36 36 39 42 45 47 46 46 46 45 46 46 45 43 42 41 41 42 40 39 39 39 39 40 41 41 41 41 40 39 38
10 11 10 13 16 18 18 20 22 26 29 33 39 42 39 40 40 43 47 49 49 48 43 41 41 41 40 36 35 35 35 35 34 34 33 34 35 36 37 38 38 37 36 34
15 15 16 17 19 20 21 23 25 28 32 35 39 39 37 38 38 40 42 44 46 47 44 38 33 31 32 32 31 30 30 32 34 34 33 33 34 35 35 35 35 35 34 33
18 18 19 19 21 22 23 25 28 30 32 35 36 34 32 34 35 36 37 36 36 36 36 32 28 27 26 26 27 28 30 31 32 34 33 33 33 33 33 33 33 33 32 32
22 21 21 22 23 24 24 25 28 30 31 33 33 30 29 31 32 31 29 26 25 23 25 25 22 22 23 23 24 26 28 30 31 32 32 32 32 32 31 31 31 31 31 31
27 26 25 25 27 26 25 26 27 28 28 29 29 26 26 27 27 24 21 17 14 14 15 17 19 19 21 23 23 25 27 28 29 30 31 30 30 30 30 30 30 30 30 31
31 30 29 28 29 29 27 27 26 26 25 26 26 24 22 23 23 21 17 14 10 10 12 14 16 18 21 22 23 25 25 26 26 28 28 28 28 28 28 28 28 29 29 30
32 33 33 32 31 30 28 26 25 24 23 23 24 22 20 20 20 19 16 13 10 9 10 13 15 17 19 20 22 22 23 23 23 24 24 25 25 25 25 26 27 28 28 28
32 33 35 34 33 31 27 26 24 23 21 21 22 20 18 18 18 18 16 14 12 10 10 11 13 15 16 17 18 18 19 20 20 20 20 21 21 22 22 23 23 24 25 25
27 28 30 32 34 33 29 25 23 22 20 20 20 19 18 17 17 17 16 15 13 12 10 11 11 12 12 14 15 16 16 16 17 18 19 19 19 19 19 19 20 21 23 24
24 25 26 27 30 31 29 28 25 23 21 20 19 19 18 17 16 16 16 15 13 12 11 11 11 11 12 12 13 14 14 15 15 15 15 15 15 15 16 17 18 19 20 21
24 26 25 25 28 28 28 30 27 25 22 21 20 18 17 16 15 15 15 14 13 12 11 11 10 11 11 11 12 13 14 14 14 14 13 13 13 13 14 15 16 17 18 19
24 26 27 26 27 28 29 30 30 27 25 22 21 18 16 14 13 12 12 12 12 11 10 9 9 8 8 8 9 10 10 11 11 11 11 11 11 12 13 14 15 15 16 16
22 25 26 26 26 28 29 30 31 29 27 24 22 21 18 15 13 12 11 11 10 10 9 9 8 7 6 6 6 6 6 7 7 8 8 8 9 10 11 12 13 13 14 15
23 24 24 24 24 24 24 26 27 28 27 24 23 23 20 17 15 14 13 12 11 11 10 9 8 7 7 6 6 5 5 5 5 5 6 7 8 9 10 11 12 13 14 16
26 25 25 24 24 25 23 23 23 25 26 25 24 24 22 20 18 18 17 16 15 14 12 11 11 10 9 9 8 8 7 7 7 7 7 8 9 10 11 12 13 14 15 17

GEFSCGP_500_meanwind_024.txt.gz
Wind_Speed
17 19 21 22 23 24 25 26 28 31 34 37 39 41 41 40 41 41 41 41 40 39 39 39 38 36 35 34 33 33 35 37 37 37 38 39 42 43 43 42 39 36 33 31
20 22 22 22 22 23 24 24 25 25 27 29 30 31 32 32 33 35 36 36 36 36 38 39 38 38 36 35 34 35 36 37 38 38 38 41 43 45 45 44 43 40 37 35
22 24 24 24 25 25 26 26 27 27 26 28 28 28 29 30 31 31 32 32 33 34 35 37 39 37 35 34 34 35 36 38 40 41 42 42 43 44 44 43 42 39 36 33
22 23 24 25 25 26 27 28 29 28 27 28 29 31 30 32 32 32 33 33 34 36 37 39 38 36 35 35 36 37 38 39 41 42 43 43 42 42 41 38 37 36 34 32
19 21 22 23 24 26 27 28 29 29 29 29 30 33 33 33 35 36 37 37 38 40 41 42 42 42 42 42 42 42 42 42 43 43 43 42 40 39 38 36 35 34 32 30
16 18 19 20 21 23 25 26 28 28 28 28 28 31 32 32 35 39 41 43 44 45 47 48 48 48 49 49 49 48 47 46 45 45 43 40 39 37 35 33 33 32 32 31
13 14 15 16 18 19 22 23 24 24 23 23 23 26 26 26 29 34 40 44 47 50 52 54 55 55 55 56 56 55 54 51 50 49 47 42 39 36 33 32 32 33 33 34
12 13 13 14 15 17 18 20 21 23 21 19 19 21 20 22 25 29 33 38 42 46 50 54 56 58 58 59 59 58 57 54 54 50 45 42 40 38 35 35 34 34 35 37
12 14 16 16 17 18 18 19 19 21 20 18 16 17 19 23 26 28 31 34 38 42 46 50 54 57 58 59 59 58 55 54 50 48 44 43 41 39 37 36 35 36 37 38
12 12 13 14 14 15 15 16 17 19 22 21 18 18 20 24 26 29 32 35 38 40 44 47 51 54 56 57 58 57 55 53 51 47 43 42 40 37 36 36 36 36 37 37
10 10 9 12 13 15 16 17 18 20 22 25 24 20 23 26 28 31 34 36 38 40 43 45 48 50 52 53 53 53 52 50 47 45 40 39 39 36 34 35 35 35 36 36
11 12 12 13 15 17 18 19 20 21 23 25 28 26 27 29 31 33 35 37 39 40 41 42 44 45 45 44 44 44 45 44 42 42 39 37 36 35 34 36 36 35 35 34
16 16 17 17 19 20 21 21 23 24 25 26 28 28 30 32 33 34 36 37 39 39 40 40 40 39 37 35 34 34 36 36 35 35 35 34 32 32 32 34 34 33 33 33
22 21 21 22 23 24 24 25 26 27 28 29 29 29 29 32 33 34 35 37 38 38 38 36 33 30 27 25 25 26 28 29 30 30 30 30 30 30 31 32 33 32 32 32
25 25 24 25 26 28 27 27 29 30 30 31 30 30 30 30 31 32 33 34 35 35 34 30 27 22 20 19 18 21 23 25 26 27 26 26 27 28 29 30 31 31 30 30
25 26 25 25 26 30 29 29 32 33 32 32 31 30 30 30 30 30 31 31 31 30 29 25 22 20 17 16 18 19 20 21 23 24 24 25 26 27 28 28 29 28 28 28
22 23 24 24 25 29 28 28 31 32 31 30 29 29 29 29 29 29 28 27 27 26 25 22 20 18 17 16 15 16 18 20 21 22 23 24 25 26 27 27 27 27 27 27
21 22 24 25 25 26 24 26 29 30 29 29 29 29 29 29 28 27 26 25 24 23 21 19 17 16 16 15 15 15 17 18 20 20 21 22 23 24 25 25 24 25 24 24
22 23 24 25 25 24 20 24 27 29 27 28 30 31 31 29 27 26 24 22 21 20 19 17 15 14 14 14 14 14 15 16 17 18 18 19 20 21 21 21 21 21 20 20
24 24 25 26 28 26 22 24 26 27 25 26 28 29 30 29 27 25 23 21 19 18 16 15 14 13 12 12 12 12 12 13 14 14 15 16 17 17 17 17 16 16 15 15
25 26 27 28 29 27 26 26 26 26 26 27 27 28 28 29 27 24 22 19 17 16 15 14 13 12 11 10 10 10 10 11 12 12 12 13 13 13 13 12 12 12 12 13
26 27 28 28 28 27 28 28 27 27 27 27 27 27 28 28 27 25 22 19 17 14 13 13 12 11 10 9 9 9 9 9 10 9 9 10 10 10 10 10 10 11 11 11
27 29 31 31 29 29 29 30 30 29 28 28 28 27 28 27 27 25 23 21 18 15 13 13 12 11 10 9 9 8 8 8 7 7 7 8 8 9 10 10 10 11 11 11
27 32 33 32 30 31 31 32 32 32 31 30 29 28 27 27 27 27 25 22 19 17 15 14 13 12 11 10 9 9 8 7 7 6 6 6 7 8 9 10 10 11 12 12
31 36 36 33 31 32 31 32 33 33 33 31 30 29 28 27 27 27 26 25 23 20 18 17 15 13 12 12 11 9 9 8 7 7 7 7 7 8 9 10 11 12 12 13
35 38 39 36 34 34 32 33 33 34 33 32 30 29 28 27 27 28 27 27 26 23 21 20 19 17 16 15 13 12 11 10 9 9 9 9 9 10 10 11 12 12 13 13

GEFSCGP_500_meanwind_030.txt.gz
Wind_Speed
16 18 20 21 22 24 25 26 29 33 37 39 42 44 46 46 45 45 45 44 44 44 44 44 45 46 46 46 46 46 46 46 46 46 46 47 46 44 44 43 43 45 46 46
16 18 18 17 18 19 20 22 24 26 29 31 34 36 39 40 40 41 41 41 41 41 41 41 42 43 44 45 46 46 46 47 48 48 48 49 46 44 45 45 45 46 47 48
19 19 18 19 20 21 23 24 26 26 27 28 31 31 35 35 36 37 37 38 38 38 38 38 39 40 41 42 43 44 45 46 48 49 49 49 48 46 46 46 46 46 45 47
20 20 20 21 23 23 26 28 28 29 28 29 32 32 33 37 36 37 37 38 38 38 38 38 38 39 40 41 42 44 45 46 47 48 48 48 46 46 45 47 48 48 47 46
19 20 20 22 23 24 26 27 28 28 29 29 30 33 32 36 36 37 38 38 38 38 39 39 40 40 41 42 43 44 45 46 47 48 49 49 49 50 49 50 49 49 47 46
16 17 18 19 21 22 23 24 25 25 25 26 26 28 29 29 30 32 33 34 34 35 35 36 38 39 40 41 43 44 45 47 48 49 51 51 52 53 53 52 50 50 49 48
11 12 14 15 16 18 19 19 20 19 18 19 23 24 25 25 26 27 28 28 28 29 30 31 33 35 37 39 41 43 45 47 49 50 52 53 54 55 55 53 51 50 48 46
9 11 13 14 15 16 17 18 19 21 20 19 20 21 22 22 24 25 25 25 25 26 27 28 30 32 35 37 40 42 45 47 49 52 53 54 54 54 54 52 50 48 47 44
10 12 14 14 14 15 16 17 19 21 20 18 18 19 20 22 24 24 25 26 26 27 28 29 30 32 34 36 39 41 44 47 49 52 54 54 55 54 53 51 49 46 44 42
10 11 13 14 14 15 16 17 17 19 22 21 20 21 22 25 26 27 27 28 28 29 30 31 32 33 35 37 39 41 42 44 47 49 51 52 52 52 52 50 49 47 44 42
12 13 14 16 16 17 18 19 21 23 25 27 27 25 25 27 29 29 29 29 29 30 31 32 33 34 36 37 38 39 40 41 42 43 44 45 45 45 46 46 45 43 41 40
14 15 15 17 18 20 22 23 25 27 28 30 32 30 29 31 33 33 31 31 31 32 32 33 33 34 35 36 37 37 38 38 37 37 37 36 37 37 38 39 39 39 39 38
15 16 17 18 21 22 23 24 26 29 31 32 34 34 33 34 36 37 35 34 33 33 32 33 33 33 34 34 34 33 33 33 31 30 30 30 30 31 32 32 34 35 35 35
14 15 16 17 19 24 25 25 26 29 32 34 34 35 34 37 39 38 37 35 33 32 32 32 32 32 32 31 31 30 29 28 26 25 24 24 24 25 27 28 31 32 31 30
14 14 15 16 18 21 22 23 26 29 30 32 33 34 34 36 37 37 36 35 33 31 31 31 30 29 29 28 27 26 25 24 23 22 20 19 20 20 21 22 23 24 24 25
15 16 17 17 20 21 20 21 24 27 28 30 31 31 31 33 33 33 33 32 31 30 30 28 27 27 26 25 24 23 22 20 19 18 18 17 16 16 16 18 19 19 20 21
17 18 18 18 21 22 21 23 25 26 26 28 29 29 29 31 31 31 30 30 30 29 28 26 25 25 24 23 22 20 19 18 17 17 16 15 15 15 16 16 15 15 16 17
20 22 22 22 23 22 23 26 27 28 27 28 29 29 30 31 31 30 30 29 28 27 26 25 24 23 22 21 20 18 18 17 15 14 13 13 13 13 13 12 12 11 12 13
23 25 26 26 27 25 24 27 29 30 28 29 30 31 31 32 32 31 31 29 28 27 26 25 24 23 21 20 18 17 16 15 14 12 11 11 10 10 11 11 11 11 11 12
27 28 29 30 31 31 31 32 31 32 30 31 31 32 33 34 33 32 32 30 29 28 27 25 24 22 20 18 17 15 14 13 12 11 11 10 10 10 11 11 11 11 11 11
29 31 32 33 33 34 35 34 33 34 35 35 34 34 35 36 35 34 34 31 29 28 27 26 24 22 20 18 16 14 13 12 11 11 10 10 10 10 11 11 10 10 11 11
31 33 34 35 35 37 37 36 37 38 38 37 38 38 38 37 36 36 35 33 31 28 27 26 24 23 21 19 17 15 13 12 11 10 10 10 9 10 10 9 10 10 10 11
31 34 35 36 36 38 39 39 40 41 42 41 41 40 40 39 38 37 36 34 32 30 27 26 26 24 23 21 18 16 14 13 12 11 10 9 8 8 9 9 10 11 11 10
33 35 36 38 39 40 41 43 44 44 43 43 43 42 41 40 39 37 36 35 33 31 28 27 27 26 24 22 20 17 15 14 13 12 11 10 9 8 9 9 10 10 11 11
36 38 40 42 43 44 45 46 47 46 46 45 44 43 42 41 39 37 36 35 33 31 29 27 27 27 26 25 23 20 18 16 14 13 12 11 11 10 10 10 10 11 12 12
40 42 44 46 48 49 50 51 51 50 49 47 46 44 43 42 40 38 36 35 33 31 30 28 28 28 27 27 25 23 21 18 17 16 15 14 13 12 12 12 12 12 12 13

GEFSCGP_500_meanwind_036.txt.gz
Wind_Speed
6 9 7 10 17 21 24 24 23 23 26 35 38 35 29 28 37 43 44 43 42 42 42 42 43 44 45 45 45 45 45 45 45 44 43 43 43 43 43 44 45 46 47 47
2 6 12 15 15 15 16 20 23 22 24 32 32 29 26 27 31 37 39 39 39 38 38 39 39 39 40 41 41 41 42 42 42 42 42 42 42 42 43 44 45 46 47 47
6 10 12 11 13 13 13 13 17 21 25 26 27 27 24 24 29 36 38 38 37 37 38 38 39 39 39 40 40 40 40 41 42 42 42 42 43 43 43 44 45 46 47 49
11 16 15 14 14 15 15 18 23 25 26 26 25 27 23 22 30 37 41 40 36 36 37 38 39 39 40 40 40 40 41 41 42 43 43 44 44 44 45 46 48 48 49 50
9 15 16 15 16 19 20 23 25 25 26 26 23 25 23 18 25 33 39 39 37 36 36 36 36 37 37 38 39 39 40 41 42 43 44 45 46 47 47 48 50 50 51 51
11 15 16 15 17 19 20 21 22 21 20 20 18 20 19 19 26 32 38 41 41 39 37 35 34 34 35 36 37 38 38 40 41 43 44 46 47 48 49 50 51 52 52 52
9 9 12 14 13 15 16 16 15 12 10 15 18 21 19 22 27 31 36 39 40 37 35 33 32 32 33 33 34 35 36 38 39 41 43 45 47 48 49 51 52 53 53 53
7 7 10 12 13 14 15 15 14 16 15 17 19 22 24 29 31 31 31 33 35 36 36 35 34 33 33 34 34 35 36 37 39 41 42 44 46 48 50 51 53 54 54 53
8 9 11 12 12 12 13 13 13 17 17 16 12 13 23 29 32 33 34 34 35 37 38 38 37 36 36 36 37 37 37 38 40 41 43 45 47 48 50 51 52 53 53 53
8 9 9 11 13 13 14 14 15 17 19 19 15 14 22 30 36 39 41 41 41 41 40 41 41 40 38 38 39 39 40 40 41 42 43 44 45 46 47 48 50 50 50 50
10 10 8 10 12 14 14 17 18 21 22 24 24 21 20 29 35 40 42 42 42 43 42 41 43 43 42 41 41 41 41 41 41 42 42 43 44 44 45 45 45 45 46 45
10 10 9 10 10 13 15 18 20 23 23 24 27 23 20 28 33 38 41 42 41 41 42 41 41 42 42 42 41 41 41 41 41 41 41 42 41 42 41 41 40 40 39 39
9 9 9 7 10 12 17 20 22 23 24 23 25 24 22 30 35 39 42 42 41 41 41 41 40 39 39 40 40 40 39 39 39 39 39 38 37 37 35 35 34 33 32 31
8 9 10 10 11 15 18 20 22 24 27 27 26 28 27 31 35 37 39 39 39 39 39 40 39 37 37 37 38 37 37 36 36 35 35 33 32 32 32 31 30 29 27 26
9 10 11 12 14 16 17 18 20 23 24 27 28 29 30 32 35 36 37 37 37 38 38 39 38 37 36 35 35 34 34 34 33 32 31 30 29 28 27 25 24 22 21 21
13 13 13 14 16 18 19 20 21 22 24 26 29 31 33 35 36 37 37 38 38 39 39 38 38 38 36 34 33 33 32 32 31 30 29 28 26 24 23 21 19 18 17 17
17 18 18 17 18 20 21 21 24 24 24 28 32 35 36 37 37 37 38 39 40 39 39 38 38 37 37 35 33 32 32 30 29 28 26 25 23 22 20 18 16 15 14 13
19 21 22 22 22 22 19 25 28 28 29 32 35 37 37 38 39 38 40 43 44 42 41 40 39 39 37 36 34 32 31 30 27 26 24 23 21 20 19 17 14 13 11 10
22 24 26 26 26 26 27 31 32 31 34 37 38 40 40 41 42 42 44 45 45 45 44 42 41 39 38 36 34 33 31 29 27 25 23 21 19 18 17 15 13 11 10 9
28 27 27 28 29 30 33 35 35 36 41 43 44 45 47 48 49 48 47 47 46 46 46 44 43 40 37 36 34 33 31 28 27 25 22 21 19 17 16 14 13 12 10 9
32 33 34 34 35 36 40 39 40 42 46 47 49 50 51 52 53 53 52 50 48 47 46 45 44 41 37 36 34 33 31 29 26 23 22 20 19 17 16 14 13 12 11 10
33 34 34 35 37 40 43 44 46 48 51 53 54 56 56 57 56 55 54 53 50 48 47 45 43 42 38 35 34 33 32 29 26 24 22 20 19 18 16 15 15 13 12 11
36 36 36 38 41 44 46 48 50 53 55 57 58 60 61 61 60 59 58 55 52 49 46 44 42 41 39 36 34 32 31 29 27 25 23 22 20 18 17 16 15 14 13 12
35 36 38 42 45 48 51 52 55 57 59 61 62 63 63 63 63 62 61 57 53 50 46 44 41 40 38 36 34 32 31 30 28 26 25 23 21 19 18 17 15 14 14 13
36 38 41 45 48 51 54 56 58 60 62 64 65 65 65 66 65 64 63 59 55 50 47 45 42 40 39 38 34 33 31 30 29 28 26 24 23 21 19 17 16 15 14 14
41 44 47 51 53 56 58 60 62 64 65 67 68 68 68 68 68 66 63 60 55 51 49 46 45 43 41 39 35 32 31 30 30 29 28 26 24 22 20 19 17 16 16 15